This demonstration page uses our WeatherBlox Daily Observations layout. Learn more.

Hourly Observations for March 5, 2018

Temp ( °F °C ) Dew Point ( °F °C ) Humidity (%) Winds ( mph kmh ) Pressure ( in mb ) Visibility ( mi km ) Precip ( " mm )
12:15 am 00:15 Cloudy 38 3.1 34 1.1 87 87 NNW 21 33 29.68 1005 10 16.0934 0 0
12:35 am 00:35 Cloudy 37 2.9 34 1 87 87 N 30 48 29.68 1005 10 16.0934 0 0
12:55 am 00:55 Cloudy 37 2.5 34 0.9 89 89 NNW 23 37 29.68 1005 7 11.26538 0 0
1:15 am 01:15 Cloudy with Light Rain 36 2 34 1.2 95 95 NNW 23 37 29.74 1007 4 6.43736 0 0
1:35 am 01:35 Cloudy with Mist and Fog 35 1.5 34 1 97 97 NNW 23 37 29.77 1008 5 8.0467 0 0
1:55 am 01:55 Cloudy 35 1.6 33 0.8 94 94 NNW 20 31 29.77 1008 10 16.0934 0 0
2:15 am 02:15 Cloudy 36 2 33 0.5 90 90 NNW 18 30 29.77 1008 10 16.0934 0 0
2:35 am 02:35 Cloudy 36 2 32 0 87 87 NW 23 37 29.77 1008 10 16.0934 0 0
2:55 am 02:55 Cloudy 35 1.7 30 -0.9 83 83 NNW 21 33 29.8 1009 10 16.0934 0 0
3:15 am 03:15 Cloudy 35 1.7 29 -1.4 80 80 NW 22 35 29.8 1009 10 16.0934 0 0
3:35 am 03:35 Cloudy 35 1.6 28 -2.1 77 77 NW 24 39 29.8 1009 10 16.0934 0 0
3:55 am 03:55 Cloudy 35 1.5 28 -2.2 77 77 NW 22 35 29.83 1010 10 16.0934 0 0
4:15 am 04:15 Cloudy 34 1.3 28 -2.3 77 77 NW 23 37 29.85 1011 10 16.0934 0 0
4:35 am 04:35 Cloudy 34 1.3 28 -2.3 77 77 NW 20 31 29.83 1010 10 16.0934 0 0
4:55 am 04:55 Cloudy 34 1.2 28 -2.3 78 78 NW 16 26 29.85 1011 10 16.0934 0 0
5:15 am 05:15 Cloudy 33 0.8 28 -2 82 82 NW 17 28 29.85 1011 10 16.0934 0 0
5:35 am 05:35 Cloudy 33 0.5 29 -1.5 87 87 NW 20 31 29.88 1012 10 16.0934 0 0
5:55 am 05:55 Cloudy 33 0.5 29 -1.5 87 87 NW 17 28 29.88 1012 10 16.0934 0 0
6:15 am 06:15 Cloudy with Light Snow 32 0.1 30 -1 92 92 NW 16 26 29.88 1012 4 6.43736 0 0
6:35 am 06:35 Cloudy with Nearby Thunderstorms 31 -0.4 28 -2.3 87 87 NW 23 37 29.88 1012 7 11.26538 0 0
6:55 am 06:55 Cloudy 32 -0.1 27 -2.6 83 83 NW 22 35 29.88 1012 10 16.0934 0 0
7:15 am 07:15 Cloudy 32 -0.1 26 -3.6 78 78 NW 21 33 29.91 1013 10 16.0934 0 0
7:35 am 07:35 Mostly Cloudy 31 -0.5 24 -4.7 74 74 NW 18 30 29.91 1013 10 16.0934 0 0
7:55 am 07:55 Partly Cloudy 31 -0.7 23 -5 73 73 NW 20 31 29.91 1013 10 16.0934 0 0
8:15 am 08:15 Mostly Cloudy 32 0.1 24 -4.5 72 72 WNW 23 37 29.91 1013 10 16.0934 0 0
8:35 am 08:35 Partly Cloudy 32 0.1 24 -4.7 70 70 WNW 22 35 29.91 1013 10 16.0934 0 0
8:55 am 08:55 Sunny 34 0.9 21 -6.1 60 60 WNW 21 33 29.91 1013 10 16.0934 0 0
9:15 am 09:15 Sunny 35 1.4 18 -7.6 52 52 WNW 31 50 29.88 1012 10 16.0934 0 0
9:35 am 09:35 Sunny 35 1.9 17 -8.4 47 47 NW 32 52 29.88 1012 10 16.0934 0 0
9:55 am 09:55 Sunny 36 2.2 17 -8.5 45 45 WNW 32 52 29.88 1012 10 16.0934 0 0
10:15 am 10:15 Sunny 37 2.7 16 -8.7 43 43 WNW 32 52 29.91 1013 10 16.0934 0 0
10:35 am 10:35 Sunny 37 2.9 17 -8.6 43 43 WNW 32 52 29.91 1013 10 16.0934 0 0
10:55 am 10:55 Sunny 38 3.2 17 -8.5 42 42 WNW 32 52 29.91 1013 10 16.0934 0 0
11:15 am 11:15 Sunny 38 3.6 17 -8.1 42 42 WNW 28 44 29.91 1013 10 16.0934 0 0
11:35 am 11:35 Sunny 40 4.3 18 -8 41 41 NW 31 50 29.91 1013 10 16.0934 0 0
11:55 am 11:55 Partly Cloudy 40 4.6 18 -8 40 40 WNW 31 50 29.88 1012 10 16.0934 0 0
12:15 pm 12:15 Partly Cloudy 41 5 18 -7.8 39 39 NW 39 63 29.88 1012 10 16.0934 0 0
12:35 pm 12:35 Mostly Cloudy 41 5.2 18 -8 38 38 NW 24 39 29.88 1012 10 16.0934 0 0
12:55 pm 12:55 Mostly Cloudy 42 5.6 18 -7.9 38 38 NW 41 67 29.88 1012 10 16.0934 0 0
1:15 pm 13:15 Cloudy 43 6 17 -8.6 35 35 WNW 35 56 29.85 1011 10 16.0934 0 0
1:35 pm 13:35 Cloudy 44 6.5 18 -8 35 35 WNW 35 56 29.85 1011 7 11.26538 0 0
1:55 pm 13:55 Cloudy 43 5.9 17 -8.5 35 35 NW 37 59 29.85 1011 7 11.26538 0 0
2:15 pm 14:15 Mostly Cloudy 43 6.1 17 -8.3 35 35 NW 35 56 29.85 1011 7 11.26538 0 0
2:35 pm 14:35 Mostly Cloudy 44 6.7 17 -8.2 34 34 NW 35 56 29.85 1011 7 11.26538 0 0
2:55 pm 14:55 Mostly Cloudy 46 7.8 18 -8 32 32 NW 38 61 29.8 1009 7 11.26538 0 0
3:15 pm 15:15 Mostly Cloudy 47 8.5 18 -7.8 31 31 WNW 39 63 29.8 1009 10 16.0934 0 0
3:35 pm 15:35 Cloudy 47 8.4 17 -8.2 30 30 NW 37 59 29.83 1010 10 16.0934 0 0
3:55 pm 15:55 Cloudy 46 7.9 17 -8.2 31 31 NW 33 54 29.83 1010 10 16.0934 0 0
4:15 pm 16:15 Cloudy 47 8.5 17 -8.6 29 29 NW 40 65 29.83 1010 10 16.0934 0 0
4:35 pm 16:35 Mostly Cloudy 46 8 16 -8.9 29 29 NW 43 69 29.83 1010 7 11.26538 0 0
4:55 pm 16:55 Mostly Cloudy 46 7.6 17 -8.5 31 31 NW 40 65 29.83 1010 7 11.26538 0 0
5:15 pm 17:15 Partly Cloudy 45 7 17 -8.5 33 33 NW 31 50 29.85 1011 10 16.0934 0 0
5:35 pm 17:35 Partly Cloudy 44 6.5 17 -8.5 34 34 NW 29 46 29.88 1012 10 16.0934 0 0
5:55 pm 17:55 Partly Cloudy 43 6.2 17 -8.1 35 35 NW 22 35 29.88 1012 10 16.0934 0 0
6:15 pm 18:15 Partly Cloudy 42 5.8 17 -8.1 36 36 WNW 29 46 29.88 1012 10 16.0934 0 0
6:35 pm 18:35 Partly Cloudy 41 5 18 -8 39 39 WNW 22 35 29.88 1012 10 16.0934 0 0
6:55 pm 18:55 Clear 40 4.7 19 -7.5 41 41 WNW 25 41 29.94 1014 10 16.0934 0 0
7:15 pm 19:15 Clear 40 4.2 19 -7.5 43 43 WNW 22 35 29.94 1014 10 16.0934 0 0
7:35 pm 19:35 Clear 39 3.9 19 -7.5 44 44 WNW 23 37 29.94 1014 10 16.0934 0 0
7:55 pm 19:55 Partly Cloudy 39 3.7 19 -7.3 45 45 WNW 16 26 29.94 1014 10 16.0934 0 0
8:15 pm 20:15 Mostly Cloudy 38 3.6 19 -7 46 46 WNW 17 28 29.94 1014 10 16.0934 0 0
8:35 pm 20:35 Mostly Cloudy 38 3.6 19 -7 46 46 WNW 24 39 29.94 1014 10 16.0934 0 0
8:55 pm 20:55 Mostly Cloudy 38 3.6 19 -7 46 46 WNW 23 37 29.97 1015 10 16.0934 0 0
9:15 pm 21:15 Partly Cloudy 38 3.3 17 -8.2 43 43 WNW 26 43 29.94 1014 10 16.0934 0 0
9:35 pm 21:35 Clear 38 3.1 17 -8.5 43 43 WNW 25 41 29.94 1014 10 16.0934 0 0
9:55 pm 21:55 Clear 37 3 16 -8.7 42 42 WNW 25 41 29.94 1014 10 16.0934 0 0
10:15 pm 22:15 Clear 37 2.6 17 -8.4 45 45 WNW 21 33 29.94 1014 10 16.0934 0 0
10:35 pm 22:35 Clear 36 2.2 17 -8.2 47 47 WNW 18 30 29.94 1014 10 16.0934 0 0
10:55 pm 22:55 Clear 36 2.2 17 -8.5 45 45 WNW 23 37 29.94 1014 10 16.0934 0 0
11:15 pm 23:15 Clear 36 2.2 16 -8.7 45 45 WNW 25 41 29.94 1014 10 16.0934 0 0
11:35 pm 23:35 Clear 36 2.2 16 -8.8 44 44 WNW 22 35 29.94 1014 10 16.0934 0 0
11:55 pm 23:55 Clear 36 2.2 16 -8.8 44 44 WNW 24 39 29.94 1014 10 16.0934 0 0

Powered by AerisWeather